P/2006 U1 (LINEAR)

T 2006 Aug. 28.53632 TT                                 Nakano

q   0.5105068            (2000.0)            P               Q

n   0.21284163     Peri.   64.03632     +0.56055764     +0.81818100

a   2.7782095      Node   240.64689     -0.80255216     +0.49866210

e   0.8162461      Incl.    8.43711     -0.20416944     +0.28620963

P   4.63 (+/-11.35 days)

From 172 observations 2006 Oct. 19-28.

Residuals in seconds of arc 

2006/                     061021 844 (2.4-  0.5-)   061023 850  0.1+  1.3+  

061019 704  1.3-  0.0     061021 844  0.7-  0.1-    061023 850  0.0   0.2+  

061019 704  0.7-  0.0     061021 844  0.0   0.1-    061023 673  0.1-  0.1+  

061019 704  0.5-  0.2+    061021 844  0.2-  0.2-    061023 673  0.1-  0.1+  

061019 704  0.3-  0.3+    061021 844  0.6+  0.2+    061023 673  0.3-  0.0   

061019 704  0.5-  0.7+    061021 844  0.1-  0.1-    061023 H06  0.0   0.2+  

061020 854  0.1-  0.1+    061021 844  0.6-  0.8-    061023 H06  0.2-  0.0   

061020 854  0.3+  0.1+    061021 844  0.2-  0.6+    061023 H06  0.1+  0.2+  

061020 854  0.1-  0.2+    061021 H06  0.8-  1.7-    061023 H06  0.3+  0.1-  

061020 704  0.2+  0.9+    061021 H06  0.6+  0.5-    061023 H06  0.0   0.1-  

061020 704  0.9+  0.5+    061021 854  0.1-  0.4+    061023 372 (2.6+  0.0 ) 

061020 704  0.4+  0.6+    061021 854  0.1-  0.2+    061024 850  0.2+  0.0   

061020 H06  0.5-  0.1+    061021 854  0.0   0.4+    061024 850  0.5+  0.0   

061020 H06  0.2+  0.2-    061021 H06  0.3-  1.0+    061024 850  0.2+  0.5-  

061020 704  0.4+  0.7+    061021 850  0.2-  0.2-    061024 850  0.3+  0.2+  

061020 704  0.2+  0.6+    061021 850  0.2-  0.3-    061024 850  0.2-  0.2+  

061020 H06  0.3-  0.1+    061021 850  0.2-  0.2-    061024 850  0.2+  0.2+  

061020 704  0.2+  0.5+    061021 673  0.0   0.0     061024 850  0.2+  0.3+  

061020 704  0.8+  0.6+    061021 673  0.1+  0.1+    061025 A11  0.0   0.2+  

061020 673  0.1+  0.2-    061021 850  0.1-  0.3-    061025 A11  1.5-  0.2+  

061020 734  0.1+  0.3-    061021 673  0.1-  0.2-    061025 A11  0.6-  0.4+  

061020 734  0.1+  0.2-    061021 673  0.2-  0.2-    061025 A11  1.5+  0.2-  

061020 734  0.2+  0.4-    061021 G96  0.0   0.4-    061025 850 (0.6+  2.2+) 

061020 734  0.0   0.2-    061021 850  0.1-  0.0     061025 850  0.9-  0.2+  

061020 734  0.0   0.4-    061021 G96  0.1+  0.6-    061025 850  1.4-  0.5-  

061020 H06  0.2+  0.4-    061021 704  0.3+  1.9-    061025 850  0.9+  0.4-  

061020 704  1.1+  0.7+    061021 G96  0.0   0.6-    061025 349  0.1+  0.4+  

061020 704  0.3+  0.5+    061021 H06  0.0   0.2-    061025 349  0.0   0.5+  

061020 673  0.1+  0.1-    061021 G96  0.1-  0.2-    061025 349  0.1-  0.3+  

061020 H06  0.1+  1.9-    061021 H06  0.0   0.5-    061027 585 (7.4+  0.7+) 

061020 673  0.1-  0.1-    061021 704  0.0   0.4+    061027 585 (4.2+  0.5+) 

061020 704  0.6+  0.9+    061021 704  0.0   0.2+    061027 585  0.4+  0.1+  

061020 704  1.1+  1.6+    061021 711  0.1-  0.3+    061027 585  0.9+  0.2+  

061020 719  0.2-  0.2-    061021 711  0.5+  0.2+    061027 585  0.3+  0.1+  

061020 719  0.5-  0.1-    061021 711  0.0   0.0     061027 585 (2.1+  0.3+) 

061020 704  0.5+  0.3+    061021 448  0.5-  0.2-    061027 585 (3.3+  0.4+) 

061020 673  0.0   0.1-    061021 448  0.1-  0.2-    061027 585 (5.4+  1.0+) 

061020 719  0.4-  0.1-    061021 448  0.2-  0.2-    061027 585 (2.9+  0.4+) 

061020 719  0.0   0.6-    061021 G96  0.3-  0.5-    061027 A41  0.5-  0.5+  

061020 704  0.0   0.8+    061021 G96  0.1+  0.4-    061027 A11  1.2+  0.1-  

061020 711  0.3+  0.4+    061021 415  0.2-  0.2-    061027 A11  0.2+  0.0   

061020 711  0.3+  0.4+    061021 415  0.3+  0.2+    061027 A11  0.6+  0.3+  

061020 711  0.3+  0.2+    061022 J95  0.0   0.2-    061027 A11  0.5-  0.1+  

061020 G96  0.5-  0.1-    061022 J95  0.2+  0.6-    061027 A11  0.0   0.2+  

061020 704  0.7+  0.6+    061022 J95  0.2-  0.2-    061027 J95  0.3-  0.3+  

061020 G96  0.7-  0.1-    061022 941  0.4+  0.1-    061027 A41  0.6-  0.1+  

061020 G96  0.2-  0.2-    061022 941  0.2+  0.1-    061027 J95  0.4+  0.3+  

061020 G96  0.4-  0.2-    061022 941  0.2+  0.2-    061027 J95  0.0   0.1+  

061020 704  0.1+  0.6+    061022 941  0.2+  0.2-    061027 703  0.4-  0.2+  

061020 D35  0.7+  0.6+    061022 J70  1.4-  0.2+    061027 703  0.2-  0.0   

061021 232  0.6+  0.5-    061022 J70  0.5-  1.1-    061027 703  0.3-  0.1+  

061021 232  0.1+  1.1-    061022 J70 (3.1-  0.6-)   061027 703  0.6-  0.1+  

061021 232  0.3+  0.4-    061022 J70 (2.1-  0.3+)   061027 703  1.1-  0.4-  

061021 232  0.3+  0.0     061022 J70 (2.5-  0.1-)   061027 703  0.3+  0.2-  

061021 232  0.4-  0.4-    061022 J70  1.6-  1.2-    061028 118  0.2+  0.0   

061021 844  0.7+  0.3+    061023 850  0.1-  0.3+    061028 118  0.3+  0.0   

061021 844 (4.1+  1.8+)   061023 850  0.1-  0.5-    061028 118  0.2+  0.1+  

061021 844  1.7+  1.1-    061023 850  0.7+  0.6-    061028 118  0.2+  0.1+  

061021 844 (2.1+  3.5-)   061023 850  0.2+  0.0     061028 703  0.0   0.6-  

061021 844  0.2+  0.1+    061023 850  0.2+  0.1+    061028 703  0.1+  0.3-  

061021 844  0.5-  1.1+    061023 673  0.2+  0.2+    061028 703  0.3-  0.6-  

061021 844  0.1+  1.1+    061023 850 (2.3+  0.5-)   061028 703  0.1+  0.3-  

061021 844  1.7-  0.1-    061023 850  0.1+  0.5+                            



NAKANO

         **** Don't distribute anyone except personal use only ****

                (C) Copyright 2006 OAA/ComputingSection

write mail from CFAD0::NAKANO on 2006-11-04 04:16:29(JST).

 



◎P/2006 U1の軌道と予報位置です



 宇都宮の鈴木雅之氏から10月13日の観測,上尾の門田健一氏から10月25日の

観測が報告されました.それぞれの光度は,10月23日が17.3等(核光度),10

月25日が17.2等(全光度)でした.地球に接近したために発見された微小の彗

星です.暫定軌道の周期(4.33年)より多少長くなりましたが,周期は,まだ,

大きく不確か(±1年)です.



    P/2006 U1 (LINEAR)

T 2006 Aug. 28.51244 TT                                 Nakano

q   0.5111117            (2000.0)            P               Q

n   0.21430688     Peri.   64.05758     +0.56070288     +0.81813055

a   2.7655317      Node   240.63302     -0.80239017     +0.49882753

e   0.8151850      Incl.    8.41737     -0.20440719     +0.28606555

P   4.60 (+/-19.46 days)

From 98 observations 2006 Oct. 19-25.

 

Date/        TT  R.A.(2000) Decl.     Delta   r     Daily motion  Mag.  Moon Age

              h    h  m       。  ,                      ,  / PA 。  m1      。

2006 Oct. 25 18  06 53.87  +26 52.9   0.420  1.205    71.0 / 263  16.9  150  .12

          26 18  06 48.61  +26 43.9   0.423  1.219    70.9 / 263  17.0  164  .19

          27 18  06 43.37  +26 34.3   0.427  1.232    70.8 / 262  17.1  177  .28

          28 18  06 38.15  +26 24.2   0.430  1.246    70.6 / 262  17.1  168  .38

          29 18  06 32.96  +26 13.7   0.434  1.260    70.4 / 261  17.2  153  .48

          30 18  06 27.79  +26 02.6   0.438  1.274    70.2 / 261  17.3  138  .59

          31 18  06 22.66  +25 51.1   0.442  1.288    69.9 / 260  17.3  123  .70

     Nov.  1 18  06 17.56  +25 39.2   0.446  1.301    69.5 / 260  17.4  107  .80

           2 18  06 12.51  +25 26.8   0.451  1.315    69.1 / 260  17.5   92  .89

           3 18  06 07.50  +25 14.1   0.456  1.328    68.6 / 259  17.5   76  .95

           4 18  06 02.54  +25 01.0   0.461  1.342    68.0 / 259  17.6   59  .99

           5 18  05 57.64  +24 47.6   0.466  1.355    67.4 / 258  17.7   44 1.00

           6 18  05 52.79  +24 33.8   0.471  1.369    66.8 / 258  17.7   28  .98

           7 18  05 48.01  +24 19.8   0.477  1.382    66.0 / 258  17.8   13  .93

           8 18  05 43.30  +24 05.5   0.483  1.395    65.2 / 257  17.9    5  .87

           9 18  05 38.66  +23 51.1   0.489  1.409    64.4 / 257  17.9   18  .78

          10 18  05 34.10  +23 36.4   0.496  1.422    63.4 / 257  18.0   32  .69

          11 18  05 29.61  +23 21.7   0.503  1.435    62.5 / 256  18.1   45  .60

          12 18  05 25.21  +23 06.8   0.510  1.448    61.4 / 256  18.1   58  .50

          13 18  05 20.90  +22 51.9   0.517  1.461    60.3 / 256  18.2   71  .40

          14 18  05 16.67  +22 36.9   0.525  1.474    59.2 / 256  18.3   84  .31

          15 18  05 12.54  +22 21.9   0.533  1.487    58.0 / 255  18.4   97  .23

          16 18  05 08.51  +22 07.0   0.541  1.500    56.7 / 255  18.4  110  .16

          17 18  05 04.57  +21 52.1   0.550  1.513    55.5 / 255  18.5  122  .09

          18 18  05 00.73  +21 37.4   0.559  1.525    54.1 / 255  18.6  135  .05

          19 18  04 57.00  +21 22.8   0.568  1.538    52.8 / 254  18.6  148  .01

          20 18  04 53.37  +21 08.3   0.578  1.551    51.4 / 254  18.7  161  .00

          21 18  04 49.84  +20 54.0   0.588  1.564    50.0 / 254  18.8  172  .01

          22 18  04 46.42  +20 40.0   0.598  1.576    48.6 / 254  18.9  169  .04

          23 18  04 43.10  +20 26.1   0.608  1.589    47.2 / 253  18.9  156  .08

          24 18  04 39.89  +20 12.6   0.619  1.601    45.7 / 253  19.0  143  .15

          25 18  04 36.78  +19 59.3   0.630  1.614    44.3 / 253  19.1  129  .24

          26 18  04 33.79  +19 46.3   0.641  1.626    42.8 / 253  19.1  115  .33

          27 18  04 30.89  +19 33.6   0.653  1.638    41.3 / 253  19.2  100  .44

          28 18  04 28.10  +19 21.3   0.665  1.651    39.9 / 253  19.3   86  .55

          29 18  04 25.41  +19 09.2   0.677  1.663    38.5 / 252  19.4   71  .67

          30 18  04 22.83  +18 57.6   0.690  1.675    37.0 / 252  19.4   56  .77

     Dec.  1 18  04 20.35  +18 46.2   0.702  1.687    35.6 / 252  19.5   41  .86

NAKANO

         **** Don't distribute anyone except personal use only ****

                (C) Copyright 2006 OAA/ComputingSection

write mail from CFAD0::NAKANO on 2006-10-26 04:36:14(JST).

 



戻ります。